Time,TemperatureF,DewpointF,PressureIn,WindDirection,WindDirectionDegrees,WindSpeedMPH,WindSpeedGustMPH,Humidity,HourlyPrecipIn,Conditions,Clouds,dailyrainin,SoftwareType,DateUTC
2013-08-31 00:01:00,70.8,67.4,29.85,WSW,253,0.0,0.0,89,0.00,,---,0.00,VWS V14.01,2013-08-31 04:01:00,
2013-08-31 00:04:00,70.8,67.4,29.85,WSW,253,0.0,0.0,89,0.00,,---,0.00,VWS V14.01,2013-08-31 04:04:00,
2013-08-31 00:05:00,70.8,67.4,29.85,WSW,253,0.0,0.0,89,0.00,,---,0.00,VWS V14.01,2013-08-31 04:05:00,
2013-08-31 00:07:00,70.8,67.4,29.85,WSW,253,0.0,0.0,89,0.00,,---,0.00,VWS V14.01,2013-08-31 04:07:00,
2013-08-31 00:08:00,70.8,67.4,29.85,WSW,253,0.0,0.0,89,0.00,,---,0.00,VWS V14.01,2013-08-31 04:08:00,
2013-08-31 00:13:00,70.8,67.4,29.85,WSW,253,0.0,0.0,89,0.00,,---,0.00,VWS V14.01,2013-08-31 04:13:00,
2013-08-31 00:18:00,70.8,67.4,29.85,WSW,253,0.0,0.0,89,0.00,,---,0.00,VWS V14.01,2013-08-31 04:18:00,
2013-08-31 00:24:00,70.8,67.4,29.85,WSW,253,0.0,0.0,89,0.00,,---,0.00,VWS V14.01,2013-08-31 04:24:00,
2013-08-31 00:29:00,70.8,67.7,29.85,SSE,159,0.0,0.0,90,0.00,,---,0.00,VWS V14.01,2013-08-31 04:29:00,
2013-08-31 00:34:00,70.8,67.7,29.84,SSE,159,0.0,0.0,90,0.00,,---,0.00,VWS V14.01,2013-08-31 04:34:00,
2013-08-31 00:40:00,70.8,67.7,29.84,SSE,159,0.0,0.0,90,0.00,,---,0.00,VWS V14.01,2013-08-31 04:40:00,
2013-08-31 00:45:00,70.8,67.7,29.84,NNE,16,0.0,0.0,90,0.00,,---,0.00,VWS V14.01,2013-08-31 04:45:00,
2013-08-31 00:50:00,70.8,67.7,29.84,NNE,16,0.0,0.0,90,0.00,,---,0.00,VWS V14.01,2013-08-31 04:50:00,
2013-08-31 00:55:00,70.8,67.4,29.84,NE,42,0.0,0.0,89,0.00,,---,0.00,VWS V14.01,2013-08-31 04:55:00,
2013-08-31 01:01:00,70.8,67.7,29.84,SE,136,0.0,0.0,90,0.00,,---,0.00,VWS V14.01,2013-08-31 05:01:00,
2013-08-31 01:06:00,70.6,67.5,29.84,SE,136,0.0,0.0,90,0.00,,---,0.00,VWS V14.01,2013-08-31 05:06:00,
2013-08-31 01:11:00,70.6,67.5,29.84,SE,145,0.0,0.0,90,0.00,,---,0.00,VWS V14.01,2013-08-31 05:11:00,
2013-08-31 01:16:00,70.6,67.5,29.84,SE,145,0.0,0.0,90,0.00,,---,0.00,VWS V14.01,2013-08-31 05:16:00,
2013-08-31 01:21:00,70.6,67.5,29.84,SE,145,0.0,0.0,90,0.00,,---,0.00,VWS V14.01,2013-08-31 05:21:00,
2013-08-31 01:26:00,70.6,67.5,29.84,SE,145,0.0,0.0,90,0.00,,---,0.00,VWS V14.01,2013-08-31 05:26:00,
2013-08-31 01:31:00,70.4,67.3,29.84,SE,145,0.0,1.0,90,0.00,,---,0.00,VWS V14.01,2013-08-31 05:31:00,
2013-08-31 01:36:00,70.4,67.3,29.84,SE,145,0.0,0.0,90,0.00,,---,0.00,VWS V14.01,2013-08-31 05:36:00,
2013-08-31 01:41:00,70.4,67.7,29.84,SE,145,0.0,0.0,91,0.00,,---,0.00,VWS V14.01,2013-08-31 05:41:00,
2013-08-31 01:46:00,70.4,67.7,29.84,SE,145,0.0,0.0,91,0.00,,---,0.00,VWS V14.01,2013-08-31 05:46:00,
2013-08-31 01:51:00,70.6,67.8,29.84,SE,145,0.0,0.0,91,0.00,,---,0.00,VWS V14.01,2013-08-31 05:51:00,
2013-08-31 01:56:00,70.6,67.8,29.84,SE,145,0.0,0.0,91,0.00,,---,0.00,VWS V14.01,2013-08-31 05:56:00,
2013-08-31 02:01:00,70.6,67.8,29.84,SE,145,0.0,0.0,91,0.00,,---,0.00,VWS V14.01,2013-08-31 06:01:00,
2013-08-31 02:06:00,70.6,67.8,29.84,SE,139,0.0,0.0,91,0.00,,---,0.00,VWS V14.01,2013-08-31 06:06:00,
2013-08-31 02:11:00,70.6,67.8,29.84,SE,139,0.0,0.0,91,0.00,,---,0.00,VWS V14.01,2013-08-31 06:11:00,
2013-08-31 02:16:00,70.4,68.0,29.83,NNW,330,0.0,0.0,92,0.00,,---,0.00,VWS V14.01,2013-08-31 06:16:00,
2013-08-31 02:21:00,70.4,68.0,29.83,NNW,330,0.0,0.0,92,0.00,,---,0.00,VWS V14.01,2013-08-31 06:21:00,
2013-08-31 02:26:00,70.4,68.0,29.83,NNW,336,0.0,0.0,92,0.00,,---,0.00,VWS V14.01,2013-08-31 06:26:00,
2013-08-31 02:32:00,70.4,68.0,29.83,NNW,336,0.0,0.0,92,0.00,,---,0.00,VWS V14.01,2013-08-31 06:32:00,
2013-08-31 02:37:00,70.3,67.9,29.83,NNW,336,0.0,0.0,92,0.00,,---,0.00,VWS V14.01,2013-08-31 06:37:00,
2013-08-31 02:42:00,70.3,67.9,29.83,NNW,336,0.0,0.0,92,0.00,,---,0.00,VWS V14.01,2013-08-31 06:42:00,
2013-08-31 02:47:00,70.1,67.7,29.83,NNW,336,0.0,0.0,92,0.00,,---,0.00,VWS V14.01,2013-08-31 06:47:00,
2013-08-31 02:52:00,70.1,67.7,29.83,NNW,336,0.0,0.0,92,0.00,,---,0.00,VWS V14.01,2013-08-31 06:52:00,
2013-08-31 02:57:00,70.1,67.7,29.83,East,94,0.0,0.0,92,0.00,,---,0.00,VWS V14.01,2013-08-31 06:57:00,
2013-08-31 03:02:00,70.1,67.7,29.83,East,94,0.0,0.0,92,0.00,,---,0.00,VWS V14.01,2013-08-31 07:02:00,
2013-08-31 03:08:00,70.1,68.0,29.83,East,94,0.0,0.0,93,0.00,,---,0.00,VWS V14.01,2013-08-31 07:08:00,
2013-08-31 03:13:00,69.9,67.8,29.83,East,94,0.0,0.0,93,0.00,,---,0.00,VWS V14.01,2013-08-31 07:13:00,
2013-08-31 03:18:00,69.9,67.8,29.83,East,84,0.0,0.0,93,0.00,,---,0.00,VWS V14.01,2013-08-31 07:18:00,
2013-08-31 03:24:00,69.9,67.8,29.82,East,84,0.0,0.0,93,0.00,,---,0.00,VWS V14.01,2013-08-31 07:24:00,
2013-08-31 03:29:00,69.9,67.8,29.83,East,84,0.0,0.0,93,0.00,,---,0.00,VWS V14.01,2013-08-31 07:29:00,
2013-08-31 03:34:00,69.9,67.8,29.83,East,84,0.0,0.0,93,0.00,,---,0.00,VWS V14.01,2013-08-31 07:34:00,
2013-08-31 03:39:00,69.9,67.8,29.83,East,84,0.0,0.0,93,0.00,,---,0.00,VWS V14.01,2013-08-31 07:39:00,
2013-08-31 03:44:00,69.9,67.8,29.83,East,84,0.0,0.0,93,0.00,,---,0.00,VWS V14.01,2013-08-31 07:44:00,
2013-08-31 03:49:00,69.9,67.8,29.83,East,84,0.0,0.0,93,0.00,,---,0.00,VWS V14.01,2013-08-31 07:49:00,
2013-08-31 03:55:00,69.9,67.8,29.83,East,84,0.0,0.0,93,0.00,,---,0.00,VWS V14.01,2013-08-31 07:55:00,
2013-08-31 04:00:00,69.9,67.8,29.83,East,84,0.0,0.0,93,0.00,,---,0.00,VWS V14.01,2013-08-31 08:00:00,
2013-08-31 04:05:00,70.1,68.0,29.83,East,84,0.0,0.0,93,0.00,,---,0.00,VWS V14.01,2013-08-31 08:05:00,
2013-08-31 04:10:00,70.1,68.0,29.83,East,84,0.0,0.0,93,0.00,,---,0.00,VWS V14.01,2013-08-31 08:10:00,
2013-08-31 04:15:00,70.1,68.0,29.83,East,84,0.0,0.0,93,0.00,,---,0.00,VWS V14.01,2013-08-31 08:15:00,
2013-08-31 04:20:00,70.1,68.3,29.82,East,84,0.0,0.0,94,0.00,,---,0.00,VWS V14.01,2013-08-31 08:20:00,
2013-08-31 04:25:00,70.1,68.3,29.82,East,84,0.0,0.0,94,0.00,,---,0.00,VWS V14.01,2013-08-31 08:25:00,
2013-08-31 04:31:00,70.1,68.3,29.83,East,84,0.0,0.0,94,0.00,,---,0.00,VWS V14.01,2013-08-31 08:31:00,
2013-08-31 04:37:00,70.3,68.2,29.83,East,84,0.0,0.0,93,0.00,,---,0.00,VWS V14.01,2013-08-31 08:37:00,
2013-08-31 04:42:00,70.3,68.2,29.83,East,84,0.0,0.0,93,0.00,,---,0.00,VWS V14.01,2013-08-31 08:42:00,
2013-08-31 04:47:00,70.3,68.2,29.83,East,84,0.0,0.0,93,0.00,,---,0.00,VWS V14.01,2013-08-31 08:47:00,
2013-08-31 04:53:00,70.3,68.2,29.83,East,84,0.0,0.0,93,0.00,,---,0.00,VWS V14.01,2013-08-31 08:53:00,
2013-08-31 04:58:00,70.3,68.2,29.82,East,84,0.0,0.0,93,0.00,,---,0.00,VWS V14.01,2013-08-31 08:58:00,
2013-08-31 05:03:00,70.3,68.2,29.82,East,84,0.0,0.0,93,0.00,,---,0.00,VWS V14.01,2013-08-31 09:03:00,
2013-08-31 05:09:00,70.3,68.2,29.83,East,84,0.0,0.0,93,0.00,,---,0.00,VWS V14.01,2013-08-31 09:09:00,
2013-08-31 05:14:00,70.3,68.2,29.82,East,84,0.0,0.0,93,0.00,,---,0.00,VWS V14.01,2013-08-31 09:14:00,
2013-08-31 05:19:00,70.3,68.2,29.82,SE,145,0.0,0.0,93,0.00,,---,0.00,VWS V14.01,2013-08-31 09:19:00,
2013-08-31 05:24:00,70.3,68.2,29.83,SE,145,0.0,0.0,93,0.00,,---,0.00,VWS V14.01,2013-08-31 09:24:00,
2013-08-31 05:29:00,70.1,68.0,29.83,SE,145,0.0,0.0,93,0.00,,---,0.00,VWS V14.01,2013-08-31 09:29:00,
2013-08-31 05:35:00,70.1,68.0,29.83,SE,145,0.0,0.0,93,0.00,,---,0.00,VWS V14.01,2013-08-31 09:35:00,
2013-08-31 05:41:00,70.1,68.0,29.82,SE,145,0.0,0.0,93,0.00,,---,0.00,VWS V14.01,2013-08-31 09:41:00,
2013-08-31 05:46:00,70.1,68.0,29.82,SE,145,0.0,0.0,93,0.00,,---,0.00,VWS V14.01,2013-08-31 09:46:00,
2013-08-31 05:51:00,70.1,68.0,29.83,SE,145,0.0,0.0,93,0.00,,---,0.00,VWS V14.01,2013-08-31 09:51:00,
2013-08-31 05:56:00,69.9,67.8,29.83,SE,145,0.0,0.0,93,0.00,,---,0.00,VWS V14.01,2013-08-31 09:56:00,
2013-08-31 06:01:00,69.9,67.8,29.83,SE,145,0.0,0.0,93,0.00,,---,0.00,VWS V14.01,2013-08-31 10:01:00,
2013-08-31 06:06:00,69.9,67.8,29.83,SE,145,0.0,0.0,93,0.00,,---,0.00,VWS V14.01,2013-08-31 10:06:00,
2013-08-31 06:12:00,69.9,67.8,29.83,SE,145,0.0,0.0,93,0.00,,---,0.00,VWS V14.01,2013-08-31 10:12:00,
2013-08-31 06:18:00,69.9,67.8,29.83,SE,145,0.0,0.0,93,0.00,,---,0.00,VWS V14.01,2013-08-31 10:18:00,
2013-08-31 06:24:00,69.9,67.8,29.83,SE,145,0.0,0.0,93,0.00,,---,0.00,VWS V14.01,2013-08-31 10:24:00,
2013-08-31 06:29:00,69.9,67.8,29.83,SE,145,0.0,0.0,93,0.00,,---,0.00,VWS V14.01,2013-08-31 10:29:00,
2013-08-31 06:35:00,69.9,67.8,29.83,SE,145,0.0,0.0,93,0.00,,---,0.00,VWS V14.01,2013-08-31 10:35:00,
2013-08-31 06:40:00,69.9,68.1,29.83,SE,145,0.0,0.0,94,0.00,,---,0.00,VWS V14.01,2013-08-31 10:40:00,
2013-08-31 06:46:00,69.9,68.1,29.83,SE,145,0.0,0.0,94,0.00,,---,0.00,VWS V14.01,2013-08-31 10:46:00,
2013-08-31 06:51:00,69.9,68.1,29.82,SE,145,0.0,0.0,94,0.00,,---,0.00,VWS V14.01,2013-08-31 10:51:00,
2013-08-31 06:57:00,69.9,68.1,29.83,SE,145,0.0,0.0,94,0.00,,---,0.00,VWS V14.01,2013-08-31 10:57:00,
2013-08-31 07:03:00,70.1,68.3,29.83,East,99,0.0,0.0,94,0.00,,---,0.00,VWS V14.01,2013-08-31 11:03:00,
2013-08-31 07:09:00,70.1,68.3,29.83,East,99,0.0,0.0,94,0.00,,---,0.00,VWS V14.01,2013-08-31 11:09:00,
2013-08-31 07:14:00,70.3,68.5,29.83,East,99,0.0,0.0,94,0.00,,---,0.00,VWS V14.01,2013-08-31 11:14:00,
2013-08-31 07:19:00,70.3,68.5,29.83,East,99,0.0,0.0,94,0.00,,---,0.00,VWS V14.01,2013-08-31 11:19:00,
2013-08-31 07:25:00,70.4,68.3,29.83,South,175,0.0,0.0,93,0.00,,---,0.00,VWS V14.01,2013-08-31 11:25:00,
2013-08-31 07:31:00,70.6,68.5,29.83,East,90,0.0,0.0,93,0.00,,---,0.00,VWS V14.01,2013-08-31 11:31:00,
2013-08-31 07:36:00,70.8,68.7,29.83,East,90,0.0,0.0,93,0.00,,---,0.00,VWS V14.01,2013-08-31 11:36:00,
2013-08-31 07:42:00,70.9,68.8,29.83,East,88,0.0,0.0,93,0.00,,---,0.00,VWS V14.01,2013-08-31 11:42:00,
2013-08-31 07:48:00,71.1,69.0,29.83,East,88,0.0,0.0,93,0.00,,---,0.00,VWS V14.01,2013-08-31 11:48:00,
2013-08-31 07:53:00,71.3,68.9,29.83,North,351,0.0,0.0,92,0.00,,---,0.00,VWS V14.01,2013-08-31 11:53:00,
2013-08-31 07:59:00,71.5,69.1,29.83,North,351,0.0,0.0,92,0.00,,---,0.00,VWS V14.01,2013-08-31 11:59:00,
2013-08-31 08:05:00,71.6,69.2,29.83,North,351,0.0,0.0,92,0.00,,---,0.00,VWS V14.01,2013-08-31 12:05:00,
2013-08-31 08:10:00,71.6,69.2,29.83,North,350,0.0,0.0,92,0.00,,---,0.00,VWS V14.01,2013-08-31 12:10:00,
2013-08-31 08:15:00,71.8,69.0,29.83,North,350,0.0,0.0,91,0.00,,---,0.00,VWS V14.01,2013-08-31 12:15:00,
2013-08-31 08:20:00,71.8,68.7,29.83,North,350,0.0,0.0,90,0.00,,---,0.00,VWS V14.01,2013-08-31 12:20:00,
2013-08-31 08:25:00,71.8,68.7,29.83,NNW,340,1.0,1.0,90,0.00,,---,0.00,VWS V14.01,2013-08-31 12:25:00,
2013-08-31 08:30:00,72.0,68.6,29.83,NNW,340,0.0,0.0,89,0.00,,---,0.00,VWS V14.01,2013-08-31 12:30:00,
2013-08-31 08:35:00,72.1,68.7,29.83,NNW,340,0.0,0.0,89,0.00,,---,0.00,VWS V14.01,2013-08-31 12:35:00,
2013-08-31 08:40:00,72.3,68.9,29.83,NNW,340,0.0,0.0,89,0.00,,---,0.00,VWS V14.01,2013-08-31 12:40:00,
2013-08-31 08:45:00,72.5,69.1,29.83,North,5,0.0,1.0,89,0.00,,---,0.00,VWS V14.01,2013-08-31 12:45:00,
2013-08-31 08:50:00,72.8,69.4,29.84,North,5,0.0,0.0,89,0.00,,---,0.00,VWS V14.01,2013-08-31 12:50:00,
2013-08-31 08:55:00,73.0,69.2,29.83,North,5,0.0,0.0,88,0.00,,---,0.00,VWS V14.01,2013-08-31 12:55:00,
2013-08-31 09:00:00,73.2,69.1,29.84,North,360,0.0,0.0,87,0.00,,---,0.00,VWS V14.01,2013-08-31 13:00:00,
2013-08-31 09:05:00,73.5,69.4,29.84,East,93,0.0,0.0,87,0.00,,---,0.00,VWS V14.01,2013-08-31 13:05:00,
2013-08-31 09:10:00,73.7,69.3,29.84,West,279,0.0,0.0,86,0.00,,---,0.00,VWS V14.01,2013-08-31 13:10:00,
2013-08-31 09:16:00,74.0,69.6,29.84,West,279,0.0,0.0,86,0.00,,---,0.00,VWS V14.01,2013-08-31 13:16:00,
2013-08-31 09:22:00,74.4,69.6,29.83,West,279,0.0,0.0,85,0.00,,---,0.00,VWS V14.01,2013-08-31 13:22:00,
2013-08-31 09:27:00,74.6,69.4,29.83,West,279,0.0,2.0,84,0.00,,---,0.00,VWS V14.01,2013-08-31 13:27:00,
2013-08-31 09:32:00,74.6,69.1,29.84,West,279,0.0,0.0,83,0.00,,---,0.00,VWS V14.01,2013-08-31 13:32:00,
2013-08-31 09:37:00,74.7,69.2,29.84,West,279,0.0,0.0,83,0.00,,---,0.00,VWS V14.01,2013-08-31 13:37:00,
2013-08-31 09:43:00,74.7,69.2,29.84,West,279,0.0,0.0,83,0.00,,---,0.00,VWS V14.01,2013-08-31 13:43:00,
2013-08-31 09:48:00,74.7,68.8,29.84,West,279,0.0,0.0,82,0.00,,---,0.00,VWS V14.01,2013-08-31 13:48:00,
2013-08-31 09:53:00,74.7,69.2,29.84,West,279,0.0,0.0,83,0.00,,---,0.00,VWS V14.01,2013-08-31 13:53:00,
2013-08-31 09:58:00,74.7,69.2,29.84,West,279,0.0,0.0,83,0.00,,---,0.00,VWS V14.01,2013-08-31 13:58:00,
2013-08-31 10:03:00,74.9,69.4,29.84,West,279,0.0,0.0,83,0.00,,---,0.00,VWS V14.01,2013-08-31 14:03:00,
2013-08-31 10:08:00,74.9,69.4,29.84,West,279,0.0,0.0,83,0.00,,---,0.00,VWS V14.01,2013-08-31 14:08:00,
2013-08-31 10:13:00,75.1,69.2,29.84,West,279,0.0,0.0,82,0.00,,---,0.00,VWS V14.01,2013-08-31 14:13:00,
2013-08-31 10:18:00,75.4,69.5,29.83,West,279,0.0,1.0,82,0.00,,---,0.00,VWS V14.01,2013-08-31 14:18:00,
2013-08-31 10:23:00,75.6,69.4,29.83,West,278,0.0,1.0,81,0.00,,---,0.00,VWS V14.01,2013-08-31 14:23:00,
2013-08-31 10:28:00,75.8,69.6,29.83,West,278,0.0,0.0,81,0.00,,---,0.00,VWS V14.01,2013-08-31 14:28:00,
2013-08-31 10:33:00,76.0,69.8,29.83,West,278,1.0,1.0,81,0.00,,---,0.00,VWS V14.01,2013-08-31 14:33:00,
2013-08-31 10:38:00,76.1,69.8,29.83,SW,217,0.0,0.0,81,0.00,,---,0.00,VWS V14.01,2013-08-31 14:38:00,
2013-08-31 10:43:00,76.3,69.7,29.83,SW,217,0.0,0.0,80,0.00,,---,0.00,VWS V14.01,2013-08-31 14:43:00,
2013-08-31 10:49:00,76.5,69.5,29.83,SW,218,0.0,0.0,79,0.00,,---,0.00,VWS V14.01,2013-08-31 14:49:00,
2013-08-31 10:54:00,76.7,69.7,29.83,West,265,0.0,6.0,79,0.00,,---,0.00,VWS V14.01,2013-08-31 14:54:00,
2013-08-31 10:59:00,77.0,70.4,29.83,South,183,0.0,0.0,80,0.00,,---,0.00,VWS V14.01,2013-08-31 14:59:00,
2013-08-31 11:04:00,77.4,70.0,29.83,South,183,0.0,0.0,78,0.00,,---,0.00,VWS V14.01,2013-08-31 15:04:00,
2013-08-31 11:09:00,77.6,70.2,29.83,SSW,194,0.0,0.0,78,0.00,,---,0.00,VWS V14.01,2013-08-31 15:09:00,
2013-08-31 11:15:00,77.7,70.3,29.83,SW,233,0.0,1.0,78,0.00,,---,0.00,VWS V14.01,2013-08-31 15:15:00,
2013-08-31 11:20:00,77.9,70.1,29.83,SW,233,0.0,0.0,77,0.00,,---,0.00,VWS V14.01,2013-08-31 15:20:00,
2013-08-31 11:25:00,78.1,69.9,29.83,SW,233,0.0,0.0,76,0.00,,---,0.00,VWS V14.01,2013-08-31 15:25:00,
2013-08-31 11:30:00,78.3,70.5,29.83,SW,233,0.0,0.0,77,0.00,,---,0.00,VWS V14.01,2013-08-31 15:30:00,
2013-08-31 11:35:00,78.8,70.6,29.83,East,96,1.0,1.0,76,0.00,,---,0.00,VWS V14.01,2013-08-31 15:35:00,
2013-08-31 11:41:00,79.4,70.8,29.83,ESE,119,0.0,0.0,75,0.00,,---,0.00,VWS V14.01,2013-08-31 15:41:00,
2013-08-31 11:47:00,79.9,70.1,29.82,WSW,245,0.0,1.0,72,0.00,,---,0.00,VWS V14.01,2013-08-31 15:47:00,
2013-08-31 11:52:00,80.1,71.1,29.82,SSE,165,0.0,2.0,74,0.00,,---,0.00,VWS V14.01,2013-08-31 15:52:00,
2013-08-31 11:57:00,80.3,71.3,29.82,SW,224,0.0,1.0,74,0.00,,---,0.00,VWS V14.01,2013-08-31 15:57:00,
2013-08-31 12:02:00,80.3,70.5,29.82,WSW,242,0.0,0.0,72,0.00,,---,0.00,VWS V14.01,2013-08-31 16:02:00,
2013-08-31 12:07:00,80.3,70.5,29.82,SW,232,0.0,0.0,72,0.00,,---,0.00,VWS V14.01,2013-08-31 16:07:00,
2013-08-31 12:13:00,80.3,70.9,29.82,SW,232,0.0,0.0,73,0.00,,---,0.00,VWS V14.01,2013-08-31 16:13:00,
2013-08-31 12:18:00,80.5,70.7,29.82,SSW,205,1.0,1.0,72,0.00,,---,0.00,VWS V14.01,2013-08-31 16:18:00,
2013-08-31 12:23:00,81.1,71.2,29.81,SSE,167,0.0,1.0,72,0.00,,---,0.00,VWS V14.01,2013-08-31 16:23:00,
2013-08-31 12:28:00,81.4,71.1,29.81,ENE,78,0.0,1.0,71,0.00,,---,0.00,VWS V14.01,2013-08-31 16:28:00,
2013-08-31 12:33:00,81.4,70.7,29.81,WSW,242,0.0,0.0,70,0.00,,---,0.00,VWS V14.01,2013-08-31 16:33:00,
2013-08-31 12:39:00,81.6,71.3,29.81,SSE,156,0.0,0.0,71,0.00,,---,0.00,VWS V14.01,2013-08-31 16:39:00,
2013-08-31 12:44:00,81.6,70.9,29.81,WSW,248,1.0,1.0,70,0.00,,---,0.00,VWS V14.01,2013-08-31 16:44:00,
2013-08-31 12:49:00,81.6,70.4,29.81,WSW,238,0.0,0.0,69,0.00,,---,0.00,VWS V14.01,2013-08-31 16:49:00,
2013-08-31 12:54:00,81.4,71.1,29.81,WSW,238,0.0,0.0,71,0.00,,---,0.00,VWS V14.01,2013-08-31 16:54:00,
2013-08-31 12:59:00,81.4,71.1,29.81,NE,40,0.0,0.0,71,0.00,,---,0.00,VWS V14.01,2013-08-31 16:59:00,
2013-08-31 13:04:00,81.4,71.5,29.81,WNW,291,0.0,1.0,72,0.00,,---,0.00,VWS V14.01,2013-08-31 17:04:00,
2013-08-31 13:09:00,81.4,71.1,29.81,WSW,239,0.0,0.0,71,0.00,,---,0.00,VWS V14.01,2013-08-31 17:09:00,
2013-08-31 13:14:00,81.2,70.9,29.81,WSW,239,1.0,1.0,71,0.00,,---,0.00,VWS V14.01,2013-08-31 17:14:00,
2013-08-31 13:19:00,80.9,71.0,29.81,WSW,239,0.0,0.0,72,0.00,,---,0.00,VWS V14.01,2013-08-31 17:19:00,
2013-08-31 13:24:00,80.9,71.4,29.81,South,182,0.0,0.0,73,0.00,,---,0.00,VWS V14.01,2013-08-31 17:24:00,
2013-08-31 13:29:00,80.9,71.4,29.81,SE,129,0.0,0.0,73,0.00,,---,0.00,VWS V14.01,2013-08-31 17:29:00,
2013-08-31 13:35:00,80.9,71.4,29.81,SE,130,0.0,2.0,73,0.00,,---,0.00,VWS V14.01,2013-08-31 17:35:00,
2013-08-31 13:40:00,80.9,71.0,29.81,SE,130,0.0,0.0,72,0.00,,---,0.00,VWS V14.01,2013-08-31 17:40:00,
2013-08-31 13:45:00,80.9,71.4,29.81,SE,130,0.0,0.0,73,0.00,,---,0.00,VWS V14.01,2013-08-31 17:45:00,
2013-08-31 13:50:00,80.7,71.7,29.81,SE,130,0.0,1.0,74,0.00,,---,0.00,VWS V14.01,2013-08-31 17:50:00,
2013-08-31 13:55:00,80.7,71.7,29.81,East,87,0.0,0.0,74,0.00,,---,0.00,VWS V14.01,2013-08-31 17:55:00,
2013-08-31 14:01:00,80.5,71.5,29.81,SE,141,0.0,0.0,74,0.00,,---,0.00,VWS V14.01,2013-08-31 18:01:00,
2013-08-31 14:07:00,80.3,72.1,29.81,SE,126,0.0,0.0,76,0.00,,---,0.00,VWS V14.01,2013-08-31 18:07:00,
2013-08-31 14:12:00,80.1,72.2,29.80,WSW,254,0.0,0.0,77,0.00,,---,0.00,VWS V14.01,2013-08-31 18:12:00,
2013-08-31 14:17:00,79.8,72.3,29.80,SW,229,0.0,1.0,78,0.00,,---,0.00,VWS V14.01,2013-08-31 18:17:00,
2013-08-31 14:22:00,79.4,71.6,29.80,SW,220,0.0,0.0,77,0.00,,---,0.00,VWS V14.01,2013-08-31 18:22:00,
2013-08-31 14:27:00,79.4,71.9,29.80,SW,220,0.0,0.0,78,0.00,,---,0.00,VWS V14.01,2013-08-31 18:27:00,
2013-08-31 14:32:00,79.4,71.9,29.80,SW,220,0.0,0.0,78,0.00,,---,0.00,VWS V14.01,2013-08-31 18:32:00,
2013-08-31 14:37:00,79.4,71.9,29.80,SW,220,0.0,0.0,78,0.00,,---,0.00,VWS V14.01,2013-08-31 18:37:00,
2013-08-31 14:42:00,79.4,71.9,29.80,SW,220,0.0,0.0,78,0.00,,---,0.00,VWS V14.01,2013-08-31 18:42:00,
2013-08-31 14:48:00,79.4,71.9,29.80,SSW,210,0.0,0.0,78,0.00,,---,0.00,VWS V14.01,2013-08-31 18:48:00,
2013-08-31 14:53:00,79.2,71.4,29.80,SSW,210,0.0,1.0,77,0.00,,---,0.00,VWS V14.01,2013-08-31 18:53:00,
2013-08-31 14:58:00,79.2,71.4,29.80,SSW,210,0.0,0.0,77,0.00,,---,0.00,VWS V14.01,2013-08-31 18:58:00,
2013-08-31 15:04:00,79.0,71.6,29.80,NW,311,0.0,0.0,78,0.00,,---,0.00,VWS V14.01,2013-08-31 19:04:00,
2013-08-31 15:09:00,79.0,71.2,29.80,SE,132,0.0,1.0,77,0.00,,---,0.00,VWS V14.01,2013-08-31 19:09:00,
2013-08-31 15:15:00,78.8,71.4,29.81,SE,133,0.0,1.0,78,0.00,,---,0.00,VWS V14.01,2013-08-31 19:15:00,
2013-08-31 15:20:00,78.8,71.7,29.80,SE,133,0.0,0.0,79,0.00,,---,0.00,VWS V14.01,2013-08-31 19:20:00,
2013-08-31 15:26:00,79.0,71.9,29.80,SE,133,0.0,0.0,79,0.00,,---,0.00,VWS V14.01,2013-08-31 19:26:00,
2013-08-31 15:32:00,79.0,71.2,29.80,WSW,256,2.0,2.0,77,0.00,,---,0.00,VWS V14.01,2013-08-31 19:32:00,
2013-08-31 15:38:00,78.8,71.0,29.80,WSW,256,0.0,0.0,77,0.00,,---,0.00,VWS V14.01,2013-08-31 19:38:00,
2013-08-31 15:43:00,78.8,70.6,29.80,WSW,256,0.0,0.0,76,0.00,,---,0.00,VWS V14.01,2013-08-31 19:43:00,
2013-08-31 15:49:00,78.8,71.0,29.80,WSW,256,0.0,0.0,77,0.00,,---,0.00,VWS V14.01,2013-08-31 19:49:00,
2013-08-31 15:54:00,78.8,71.0,29.80,WSW,256,0.0,0.0,77,0.00,,---,0.00,VWS V14.01,2013-08-31 19:54:00,
2013-08-31 15:59:00,79.0,71.6,29.80,WSW,256,0.0,0.0,78,0.00,,---,0.00,VWS V14.01,2013-08-31 19:59:00,
2013-08-31 16:05:00,79.0,71.2,29.80,WSW,256,0.0,0.0,77,0.00,,---,0.00,VWS V14.01,2013-08-31 20:05:00,
2013-08-31 16:11:00,79.2,71.4,29.79,SW,216,0.0,1.0,77,0.00,,---,0.00,VWS V14.01,2013-08-31 20:11:00,
2013-08-31 16:16:00,79.4,71.2,29.79,SSE,164,0.0,0.0,76,0.00,,---,0.00,VWS V14.01,2013-08-31 20:16:00,
2013-08-31 16:22:00,79.4,71.2,29.79,SSE,157,0.0,0.0,76,0.00,,---,0.00,VWS V14.01,2013-08-31 20:22:00,
2013-08-31 16:28:00,79.4,71.2,29.79,SSE,157,0.0,0.0,76,0.00,,---,0.00,VWS V14.01,2013-08-31 20:28:00,
2013-08-31 16:33:00,79.2,71.4,29.79,SSE,158,0.0,0.0,77,0.00,,---,0.00,VWS V14.01,2013-08-31 20:33:00,
2013-08-31 16:38:00,79.2,71.0,29.79,SSE,158,0.0,0.0,76,0.00,,---,0.00,VWS V14.01,2013-08-31 20:38:00,
2013-08-31 16:43:00,79.2,71.4,29.79,SSE,158,0.0,0.0,77,0.00,,---,0.00,VWS V14.01,2013-08-31 20:43:00,
2013-08-31 16:48:00,79.2,71.4,29.79,SSE,158,0.0,0.0,77,0.00,,---,0.00,VWS V14.01,2013-08-31 20:48:00,
2013-08-31 16:54:00,79.2,71.4,29.79,SSE,167,0.0,0.0,77,0.00,,---,0.00,VWS V14.01,2013-08-31 20:54:00,
2013-08-31 16:59:00,79.2,71.4,29.79,SSE,167,0.0,0.0,77,0.00,,---,0.00,VWS V14.01,2013-08-31 20:59:00,
2013-08-31 17:04:00,79.2,71.4,29.79,SSE,167,0.0,0.0,77,0.00,,---,0.00,VWS V14.01,2013-08-31 21:04:00,
2013-08-31 17:09:00,79.2,71.4,29.79,SSE,167,0.0,0.0,77,0.00,,---,0.00,VWS V14.01,2013-08-31 21:09:00,
2013-08-31 17:14:00,79.4,71.6,29.79,SSE,167,0.0,0.0,77,0.00,,---,0.00,VWS V14.01,2013-08-31 21:14:00,
2013-08-31 17:19:00,79.6,71.8,29.79,SSE,149,0.0,2.0,77,0.00,,---,0.00,VWS V14.01,2013-08-31 21:19:00,
2013-08-31 17:25:00,79.6,71.4,29.79,NNW,348,0.0,0.0,76,0.00,,---,0.00,VWS V14.01,2013-08-31 21:25:00,
2013-08-31 17:30:00,79.8,71.9,29.79,NNW,346,0.0,0.0,77,0.00,,---,0.00,VWS V14.01,2013-08-31 21:30:00,
2013-08-31 17:35:00,79.9,71.7,29.78,South,177,3.0,3.0,76,0.00,,---,0.00,VWS V14.01,2013-08-31 21:35:00,
2013-08-31 17:40:00,79.9,71.7,29.79,South,177,0.0,1.0,76,0.00,,---,0.00,VWS V14.01,2013-08-31 21:40:00,
2013-08-31 17:45:00,80.1,71.5,29.79,South,179,0.0,1.0,75,0.00,,---,0.00,VWS V14.01,2013-08-31 21:45:00,
2013-08-31 17:51:00,80.5,71.5,29.79,SSW,201,1.0,1.0,74,0.00,,---,0.00,VWS V14.01,2013-08-31 21:51:00,
2013-08-31 17:56:00,80.5,71.5,29.79,WSW,241,0.0,0.0,74,0.00,,---,0.00,VWS V14.01,2013-08-31 21:56:00,
2013-08-31 18:01:00,80.5,71.5,29.78,WSW,241,0.0,0.0,74,0.00,,---,0.00,VWS V14.01,2013-08-31 22:01:00,
2013-08-31 18:06:00,80.3,71.3,29.79,South,189,0.0,0.0,74,0.00,,---,0.00,VWS V14.01,2013-08-31 22:06:00,
2013-08-31 18:11:00,79.9,71.3,29.79,ESE,123,0.0,1.0,75,0.00,,---,0.00,VWS V14.01,2013-08-31 22:11:00,
2013-08-31 18:16:00,79.6,71.4,29.78,WSW,243,0.0,1.0,76,0.00,,---,0.00,VWS V14.01,2013-08-31 22:16:00,
2013-08-31 18:21:00,79.4,71.6,29.78,WSW,243,0.0,0.0,77,0.00,,---,0.00,VWS V14.01,2013-08-31 22:21:00,
2013-08-31 18:27:00,79.2,71.4,29.79,SE,134,0.0,0.0,77,0.00,,---,0.00,VWS V14.01,2013-08-31 22:27:00,
2013-08-31 18:32:00,79.0,71.2,29.79,SE,134,0.0,0.0,77,0.00,,---,0.00,VWS V14.01,2013-08-31 22:32:00,
2013-08-31 18:37:00,79.0,71.6,29.79,ENE,74,0.0,0.0,78,0.00,,---,0.00,VWS V14.01,2013-08-31 22:37:00,
2013-08-31 18:43:00,78.6,71.2,29.79,ESE,110,0.0,0.0,78,0.00,,---,0.00,VWS V14.01,2013-08-31 22:43:00,
2013-08-31 18:48:00,78.5,71.1,29.79,SE,146,0.0,1.0,78,0.00,,---,0.00,VWS V14.01,2013-08-31 22:48:00,
2013-08-31 18:53:00,78.3,71.3,29.79,SE,146,0.0,0.0,79,0.00,,---,0.00,VWS V14.01,2013-08-31 22:53:00,
2013-08-31 18:59:00,78.1,71.1,29.79,SE,146,0.0,0.0,79,0.00,,---,0.00,VWS V14.01,2013-08-31 22:59:00,
2013-08-31 19:04:00,77.7,71.0,29.79,SE,146,0.0,0.0,80,0.00,,---,0.00,VWS V14.01,2013-08-31 23:04:00,
2013-08-31 19:09:00,77.6,70.9,29.79,SE,146,0.0,0.0,80,0.00,,---,0.00,VWS V14.01,2013-08-31 23:09:00,
2013-08-31 19:14:00,77.4,70.8,29.79,SE,146,0.0,0.0,80,0.00,,---,0.00,VWS V14.01,2013-08-31 23:14:00,
2013-08-31 19:19:00,77.4,71.1,29.79,SE,146,0.0,0.0,81,0.00,,---,0.00,VWS V14.01,2013-08-31 23:19:00,
2013-08-31 19:24:00,77.2,70.9,29.79,SE,146,0.0,0.0,81,0.00,,---,0.00,VWS V14.01,2013-08-31 23:24:00,
2013-08-31 19:29:00,77.0,71.1,29.78,SE,146,0.0,2.0,82,0.00,,---,0.00,VWS V14.01,2013-08-31 23:29:00,
2013-08-31 19:34:00,76.8,70.9,29.78,SSE,147,0.0,0.0,82,0.00,,---,0.00,VWS V14.01,2013-08-31 23:34:00,
2013-08-31 19:40:00,76.5,70.6,29.79,SE,146,0.0,0.0,82,0.00,,---,0.00,VWS V14.01,2013-08-31 23:40:00,
2013-08-31 19:45:00,76.5,71.0,29.78,SE,146,0.0,0.0,83,0.00,,---,0.00,VWS V14.01,2013-08-31 23:45:00,
2013-08-31 19:50:00,76.3,70.8,29.78,SE,146,0.0,0.0,83,0.00,,---,0.00,VWS V14.01,2013-08-31 23:50:00,
2013-08-31 19:55:00,76.1,70.6,29.79,SE,146,0.0,0.0,83,0.00,,---,0.00,VWS V14.01,2013-08-31 23:55:00,
2013-08-31 20:01:00,75.8,70.3,29.79,SE,146,0.0,0.0,83,0.00,,---,0.00,VWS V14.01,2013-09-01 00:01:00,
2013-08-31 20:06:00,75.8,70.6,29.79,SE,146,0.0,0.0,84,0.00,,---,0.00,VWS V14.01,2013-09-01 00:06:00,
2013-08-31 20:11:00,75.6,70.4,29.79,SE,146,0.0,1.0,84,0.00,,---,0.00,VWS V14.01,2013-09-01 00:11:00,
2013-08-31 20:16:00,75.4,70.2,29.79,SE,146,0.0,1.0,84,0.00,,---,0.00,VWS V14.01,2013-09-01 00:16:00,
2013-08-31 20:21:00,75.3,70.5,29.79,SE,135,0.0,0.0,85,0.00,,---,0.00,VWS V14.01,2013-09-01 00:21:00,
2013-08-31 20:26:00,75.3,70.5,29.79,East,101,0.0,0.0,85,0.00,,---,0.00,VWS V14.01,2013-09-01 00:26:00,
2013-08-31 20:31:00,75.1,70.6,29.79,East,101,0.0,0.0,86,0.00,,---,0.00,VWS V14.01,2013-09-01 00:31:00,
2013-08-31 20:36:00,74.9,70.4,29.79,East,101,0.0,0.0,86,0.00,,---,0.00,VWS V14.01,2013-09-01 00:36:00,
2013-08-31 20:41:00,74.9,70.4,29.79,SSE,149,0.0,0.0,86,0.00,,---,0.00,VWS V14.01,2013-09-01 00:41:00,
2013-08-31 20:46:00,74.7,70.2,29.78,South,184,0.0,1.0,86,0.00,,---,0.00,VWS V14.01,2013-09-01 00:46:00,
2013-08-31 20:51:00,74.6,70.5,29.79,South,184,0.0,0.0,87,0.00,,---,0.00,VWS V14.01,2013-09-01 00:51:00,
2013-08-31 20:56:00,74.6,70.5,29.79,South,173,0.0,0.0,87,0.00,,---,0.00,VWS V14.01,2013-09-01 00:56:00,
2013-08-31 21:01:00,74.4,70.3,29.80,South,173,0.0,0.0,87,0.00,,---,0.00,VWS V14.01,2013-09-01 01:01:00,
2013-08-31 21:06:00,74.4,70.6,29.80,South,173,0.0,0.0,88,0.00,,---,0.00,VWS V14.01,2013-09-01 01:06:00,
2013-08-31 21:12:00,74.4,70.6,29.80,South,173,0.0,0.0,88,0.00,,---,0.00,VWS V14.01,2013-09-01 01:12:00,
2013-08-31 21:17:00,74.2,70.4,29.80,South,173,0.0,0.0,88,0.00,,---,0.00,VWS V14.01,2013-09-01 01:17:00,
2013-08-31 21:23:00,74.2,70.4,29.81,South,173,0.0,0.0,88,0.00,,---,0.00,VWS V14.01,2013-09-01 01:23:00,
2013-08-31 21:28:00,74.2,70.4,29.81,South,173,0.0,0.0,88,0.00,,---,0.00,VWS V14.01,2013-09-01 01:28:00,
2013-08-31 21:33:00,74.2,70.4,29.81,South,173,0.0,0.0,88,0.00,,---,0.00,VWS V14.01,2013-09-01 01:33:00,
2013-08-31 21:39:00,74.2,70.8,29.82,South,173,0.0,0.0,89,0.00,,---,0.00,VWS V14.01,2013-09-01 01:39:00,
2013-08-31 21:44:00,74.2,70.8,29.82,South,173,0.0,0.0,89,0.00,,---,0.00,VWS V14.01,2013-09-01 01:44:00,
2013-08-31 21:49:00,74.0,70.6,29.83,South,173,0.0,0.0,89,0.00,,---,0.00,VWS V14.01,2013-09-01 01:49:00,
2013-08-31 21:55:00,74.0,70.6,29.83,South,173,0.0,0.0,89,0.00,,---,0.00,VWS V14.01,2013-09-01 01:55:00,
2013-08-31 22:00:00,74.0,70.6,29.83,South,173,0.0,0.0,89,0.00,,---,0.00,VWS V14.01,2013-09-01 02:00:00,
2013-08-31 22:05:00,73.9,70.5,29.83,South,173,0.0,0.0,89,0.00,,---,0.00,VWS V14.01,2013-09-01 02:05:00,
2013-08-31 22:10:00,73.9,70.5,29.83,South,173,0.0,0.0,89,0.00,,---,0.00,VWS V14.01,2013-09-01 02:10:00,
2013-08-31 22:15:00,73.9,70.5,29.83,South,173,0.0,0.0,89,0.00,,---,0.00,VWS V14.01,2013-09-01 02:15:00,
2013-08-31 22:20:00,73.7,70.3,29.83,South,173,0.0,0.0,89,0.00,,---,0.00,VWS V14.01,2013-09-01 02:20:00,
2013-08-31 22:25:00,73.7,70.3,29.83,South,173,0.0,0.0,89,0.00,,---,0.00,VWS V14.01,2013-09-01 02:25:00,
2013-08-31 22:30:00,73.7,70.3,29.83,South,173,0.0,0.0,89,0.00,,---,0.00,VWS V14.01,2013-09-01 02:30:00,
2013-08-31 22:35:00,73.7,70.6,29.83,South,173,0.0,0.0,90,0.00,,---,0.00,VWS V14.01,2013-09-01 02:35:00,
2013-08-31 22:40:00,73.7,70.6,29.83,South,173,0.0,0.0,90,0.00,,---,0.00,VWS V14.01,2013-09-01 02:40:00,
2013-08-31 22:45:00,73.5,70.4,29.83,South,173,0.0,0.0,90,0.00,,---,0.00,VWS V14.01,2013-09-01 02:45:00,
2013-08-31 22:51:00,73.5,70.4,29.83,South,173,0.0,0.0,90,0.00,,---,0.00,VWS V14.01,2013-09-01 02:51:00,
2013-08-31 22:56:00,73.5,70.4,29.83,South,173,0.0,0.0,90,0.00,,---,0.00,VWS V14.01,2013-09-01 02:56:00,
2013-08-31 23:01:00,73.5,70.4,29.82,South,173,0.0,0.0,90,0.00,,---,0.00,VWS V14.01,2013-09-01 03:01:00,
2013-08-31 23:07:00,73.3,70.2,29.82,South,173,0.0,0.0,90,0.00,,---,0.00,VWS V14.01,2013-09-01 03:07:00,
2013-08-31 23:12:00,73.3,70.2,29.82,South,173,0.0,0.0,90,0.00,,---,0.00,VWS V14.01,2013-09-01 03:12:00,
2013-08-31 23:17:00,73.3,70.5,29.83,South,173,0.0,0.0,91,0.00,,---,0.00,VWS V14.01,2013-09-01 03:17:00,
2013-08-31 23:23:00,73.3,70.5,29.83,South,173,0.0,0.0,91,0.00,,---,0.00,VWS V14.01,2013-09-01 03:23:00,
2013-08-31 23:28:00,73.2,70.4,29.82,South,173,0.0,0.0,91,0.00,,---,0.00,VWS V14.01,2013-09-01 03:28:00,
2013-08-31 23:34:00,73.2,70.4,29.83,South,173,0.0,0.0,91,0.00,,---,0.00,VWS V14.01,2013-09-01 03:34:00,
2013-08-31 23:39:00,73.2,70.4,29.82,South,173,0.0,0.0,91,0.00,,---,0.00,VWS V14.01,2013-09-01 03:39:00,
2013-08-31 23:44:00,73.2,70.4,29.82,South,173,0.0,0.0,91,0.00,,---,0.00,VWS V14.01,2013-09-01 03:44:00,
2013-08-31 23:49:00,73.2,70.7,29.82,South,173,0.0,0.0,92,0.00,,---,0.00,VWS V14.01,2013-09-01 03:49:00,
2013-08-31 23:54:00,73.0,70.5,29.82,South,173,0.0,1.0,92,0.00,,---,0.00,VWS V14.01,2013-09-01 03:54:00,